^^
Saratoga-Weather Station Historical Data
Daily Summary for January 9, 2020 Units:  English    Metric   Both
Daily Weekly Monthly Yearly Custom
  High: Low: Average:
Temperature: 59.5 °F 55.4 °F 57.2 °F
Dew Point: 56.7 °F 54 °F 55 °F
Humidity: 95% 84% 92%
Wind Speed: 9mph 0mph 1.7mph
Wind Gust: 11mph - -
Wind- - West
Pressure: 30.1 in 30 in -
Precipitation: 0.37 in    
Historical Graphs
 
 
Tabular Data for January 9, 2020
Time Temperature Dew Point Pressure Wind Wind Speed Wind Gust Humidity Rainfall Rate (Hourly) solar
00:02 59.4 °F 54.9 °F 30.1 in WSW 2 mph 8 mph 85% 0 in 0 W/m2
00:07 59.4 °F 54.9 °F 30.1 in WSW 0.9 mph 9 mph 85% 0 in 0 W/m2
00:12 59.4 °F 54.9 °F 30.1 in WNW 2.9 mph 5 mph 85% 0 in 0 W/m2
00:17 59.5 °F 55 °F 30.1 in NW 4 mph 9 mph 85% 0 in 0 W/m2
00:22 59.5 °F 55 °F 30.1 in West 6 mph 6 mph 85% 0 in 0 W/m2
00:27 59.5 °F 55 °F 30.1 in North 0.9 mph 7 mph 85% 0 in 0 W/m2
00:32 59.5 °F 54.7 °F 30.1 in WSW 4.9 mph 5 mph 84% 0 in 0 W/m2
00:37 59.5 °F 55 °F 30.1 in Calm   1 mph 85% 0 in 0 W/m2
00:42 59.5 °F 54.7 °F 30.1 in NW 2 mph 3 mph 84% 0 in 0 W/m2
00:47 59.5 °F 54.7 °F 30.1 in NW 2 mph 3 mph 84% 0 in 0 W/m2
00:52 59.5 °F 54.7 °F 30.1 in North 2.9 mph 4 mph 84% 0 in 0 W/m2
00:57 59.5 °F 54.7 °F 30.1 in NW 0.9 mph 6 mph 84% 0 in 0 W/m2
01:02 59.5 °F 54.7 °F 30.1 in Calm   4 mph 84% 0 in 0 W/m2
01:07 59.5 °F 54.7 °F 30.1 in WNW 4 mph 4 mph 84% 0 in 0 W/m2
01:12 59.5 °F 55 °F 30.1 in NW 2.9 mph 6 mph 85% 0 in 0 W/m2
01:17 59.4 °F 54.9 °F 30.1 in NW 0.9 mph 6 mph 85% 0 in 0 W/m2
01:22 59.4 °F 54.9 °F 30.1 in Calm   2 mph 85% 0 in 0 W/m2
01:27 59.4 °F 54.9 °F 30.1 in NW 0.9 mph 3 mph 85% 0 in 0 W/m2
01:32 59.2 °F 55 °F 30.1 in WSW 0.9 mph 4 mph 86% 0 in 0 W/m2
01:37 59 °F 54.9 °F 30.1 in NNE 2 mph 3 mph 86% 0 in 0 W/m2
01:42 58.8 °F 54.7 °F 30.1 in WSW 2 mph 3 mph 86% 0 in 0 W/m2
01:47 58.8 °F 54.7 °F 30.1 in SW 0.9 mph 4 mph 86% 0 in 0 W/m2
01:52 58.8 °F 55 °F 30.1 in NW 4 mph 4 mph 87% 0 in 0 W/m2
01:57 58.6 °F 54.9 °F 30.1 in NNW 2.9 mph 7 mph 87% 0 in 0 W/m2
02:02 58.6 °F 54.9 °F 30.1 in WNW 2.9 mph 4 mph 87% 0 in 0 W/m2
02:07 58.6 °F 55 °F 30.1 in NW 0.9 mph 2 mph 88% 0 in 0 W/m2
02:12 58.5 °F 54.9 °F 30.1 in NNW 2 mph 3 mph 88% 0 in 0 W/m2
02:17 58.3 °F 55 °F 30.1 in NNW 2 mph 2 mph 89% 0 in 0 W/m2
02:22 57.9 °F 55 °F 30.1 in NW 2 mph 4 mph 90% 0 in 0 W/m2
02:27 57.7 °F 54.9 °F 30.1 in NW 2 mph 3 mph 90% 0 in 0 W/m2
02:32 57.6 °F 55 °F 30.1 in NW 2 mph 3 mph 91% 0 in 0 W/m2
02:37 57.6 °F 55 °F 30.1 in WNW 2 mph 4 mph 91% 0 in 0 W/m2
02:42 57.6 °F 55 °F 30.1 in NW 0.9 mph 4 mph 91% 0.01 in 0 W/m2
02:47 57.6 °F 55 °F 30.1 in WNW 4 mph 10 mph 91% 0.01 in 0 W/m2
02:52 57.6 °F 55 °F 30.1 in SW 2 mph 6 mph 91% 0.01 in 0 W/m2
02:57 57.6 °F 55 °F 30.1 in WSW 0.9 mph 8 mph 91% 0.01 in 0 W/m2
03:02 57.4 °F 55 °F 30.1 in NNE 0.9 mph 3 mph 92% 0.01 in 0 W/m2
03:07 57.4 °F 55 °F 30.1 in North 0.9 mph 3 mph 92% 0.01 in 0 W/m2
03:12 57.4 °F 55 °F 30.1 in NNW 2 mph 2 mph 92% 0.01 in 0 W/m2
03:17 57.4 °F 55 °F 30.1 in NNW 0.9 mph 1 mph 92% 0.01 in 0 W/m2
03:22 57.4 °F 55 °F 30.1 in WNW 2.9 mph 4 mph 92% 0.01 in 0 W/m2
03:27 57.4 °F 54.9 °F 30.1 in NW 2.9 mph 4 mph 91% 0.01 in 0 W/m2
03:32 57.6 °F 55 °F 30.1 in NW 2 mph 4 mph 91% 0.01 in 0 W/m2
03:37 57.6 °F 55 °F 30.1 in NNW 0.9 mph 3 mph 91% 0.01 in 0 W/m2
03:42 57.6 °F 55 °F 30.1 in NW 2 mph 5 mph 91% 0 in 0 W/m2
03:47 57.6 °F 55 °F 30.1 in SE 4 mph 4 mph 91% 0 in 0 W/m2
03:52 57.6 °F 54.7 °F 30.1 in NW 0.9 mph 5 mph 90% 0 in 0 W/m2
03:57 57.7 °F 54.9 °F 30.1 in North 4 mph 4 mph 90% 0 in 0 W/m2
04:02 57.7 °F 54.9 °F 30.1 in SW 0.9 mph 3 mph 90% 0 in 0 W/m2
04:07 57.7 °F 54.9 °F 30.1 in NW 0.9 mph 4 mph 90% 0 in 0 W/m2
04:12 57.7 °F 54.9 °F 30.1 in NNW 2 mph 5 mph 90% 0 in 0 W/m2
04:17 57.7 °F 54.9 °F 30.1 in WNW 0.9 mph 3 mph 90% 0 in 0 W/m2
04:22 57.7 °F 54.9 °F 30.1 in NW 6.9 mph 7 mph 90% 0 in 0 W/m2
04:27 57.9 °F 55 °F 30.1 in North 0.9 mph 8 mph 90% 0 in 0 W/m2
04:32 57.9 °F 54.7 °F 30.1 in North 4.9 mph 5 mph 89% 0 in 0 W/m2
04:37 57.9 °F 54.7 °F 30.1 in Calm   8 mph 89% 0 in 0 W/m2
04:42 57.9 °F 54.7 °F 30.1 in NW 0.9 mph 6 mph 89% 0 in 0 W/m2
04:47 57.9 °F 54.7 °F 30.1 in NW 2.9 mph 4 mph 89% 0 in 0 W/m2
04:52 57.9 °F 54.7 °F 30.1 in NW 4 mph 6 mph 89% 0 in 0 W/m2
04:57 57.9 °F 54.7 °F 30.1 in ENE 2.9 mph 4 mph 89% 0 in 0 W/m2
05:02 57.9 °F 54.7 °F 30.1 in West 2 mph 4 mph 89% 0 in 0 W/m2
05:07 57.9 °F 54.7 °F 30.1 in NW 2 mph 3 mph 89% 0 in 0 W/m2
05:12 57.9 °F 54.7 °F 30.1 in North 2.9 mph 4 mph 89% 0 in 0 W/m2
05:17 57.9 °F 54.7 °F 30.1 in North 0.9 mph 2 mph 89% 0 in 0 W/m2
05:22 57.9 °F 54.7 °F 30.1 in NW 0.9 mph 3 mph 89% 0 in 0 W/m2
05:27 57.9 °F 54.7 °F 30.1 in North 0.9 mph 2 mph 89% 0 in 0 W/m2
05:32 57.7 °F 54.5 °F 30.1 in SW 0.9 mph 4 mph 89% 0 in 0 W/m2
05:37 57.7 °F 54.5 °F 30.1 in NW 2 mph 3 mph 89% 0 in 0 W/m2
05:42 57.7 °F 54.5 °F 30.1 in WNW 2 mph 3 mph 89% 0 in 0 W/m2
05:47 57.7 °F 54.5 °F 30.1 in NW 2 mph 5 mph 89% 0 in 0 W/m2
05:52 57.7 °F 54.9 °F 30.1 in NW 2 mph 4 mph 90% 0 in 0 W/m2
05:57 57.6 °F 54.7 °F 30.1 in NNE 0.9 mph 4 mph 90% 0 in 0 W/m2
06:02 57.6 °F 54.7 °F 30.1 in NW 0.9 mph 3 mph 90% 0 in 0 W/m2
06:07 57.4 °F 54.5 °F 30.1 in North 0.9 mph 2 mph 90% 0 in 0 W/m2
06:12 57.4 °F 54.9 °F 30.1 in West 2.9 mph 4 mph 91% 0 in 0 W/m2
06:17 57 °F 54.5 °F 30.1 in Calm   2 mph 91% 0 in 0 W/m2
06:22 56.8 °F 54.3 °F 30.1 in North 0.9 mph 1 mph 91% 0 in 0 W/m2
06:28 56.8 °F 54.5 °F 30.1 in NNW 2 mph 5 mph 92% 0 in 0 W/m2
06:33 56.7 °F 54.3 °F 30.1 in NNW 2 mph 2 mph 92% 0 in 0 W/m2
06:38 56.5 °F 54.5 °F 30.1 in NNW 0.9 mph 5 mph 93% 0.01 in 0 W/m2
06:43 56.5 °F 54.5 °F 30.1 in North 2 mph 2 mph 93% 0.01 in 0 W/m2
06:48 56.3 °F 54.3 °F 30.1 in NW 2.9 mph 4 mph 93% 0.02 in 0 W/m2
06:53 56.1 °F 54.1 °F 30.1 in NW 2 mph 2 mph 93% 0.02 in 0 W/m2
06:58 55.9 °F 54.3 °F 30.1 in NW 2 mph 3 mph 94% 0.02 in 0 W/m2
07:03 55.9 °F 54.3 °F 30.1 in Calm   1 mph 94% 0.02 in 0 W/m2
07:08 55.9 °F 54.3 °F 30.1 in NW 2 mph 4 mph 94% 0.02 in 0 W/m2
07:13 55.8 °F 54.1 °F 30.1 in SSW 2 mph 5 mph 94% 0.02 in 0 W/m2
07:18 55.8 °F 54.1 °F 30.1 in NNW 2 mph 3 mph 94% 0.03 in 0 W/m2
07:23 55.8 °F 54.1 °F 30.1 in Calm   4 mph 94% 0.03 in 0 W/m2
07:28 55.8 °F 54.1 °F 30.1 in Calm   2 mph 94% 0.03 in 0 W/m2
07:33 55.8 °F 54.1 °F 30.1 in Calm   1 mph 94% 0.03 in 0 W/m2
07:38 55.8 °F 54.1 °F 30.1 in Calm   2 mph 94% 0.02 in 0 W/m2
07:43 55.6 °F 54 °F 30.1 in WNW 0.9 mph 3 mph 94% 0.02 in 0 W/m2
07:48 55.6 °F 54.1 °F 30.1 in NNW 0.9 mph 1 mph 95% 0.02 in 0 W/m2
07:53 55.6 °F 54.1 °F 30.1 in Calm   3 mph 95% 0.02 in 0 W/m2
07:58 55.6 °F 54 °F 30.1 in North 2.9 mph 3 mph 94% 0.01 in 0 W/m2
08:03 55.6 °F 54 °F 30.1 in ENE 0.9 mph 2 mph 94% 0.02 in 0 W/m2
08:08 55.6 °F 54.1 °F 30.1 in NNW 2 mph 3 mph 95% 0.02 in 0 W/m2
08:13 55.6 °F 54.1 °F 30.1 in NW 2 mph 3 mph 95% 0.02 in 5 W/m2
08:18 55.6 °F 54.1 °F 30.1 in Calm     95% 0.01 in 9 W/m2
08:23 55.6 °F 54.1 °F 30.1 in NW 0.9 mph 2 mph 95% 0.01 in 12 W/m2
08:28 55.6 °F 54.1 °F 30.1 in Calm   1 mph 95% 0.02 in 16 W/m2
08:33 55.6 °F 54.1 °F 30.1 in Calm   5 mph 95% 0.02 in 16 W/m2
08:38 55.6 °F 54.1 °F 30.1 in Calm   1 mph 95% 0.02 in 16 W/m2
08:43 55.6 °F 54.1 °F 30.1 in Calm   5 mph 95% 0.02 in 16 W/m2
08:48 55.6 °F 54.1 °F 30.1 in North 0.9 mph 1 mph 95% 0.02 in 12 W/m2
08:53 55.6 °F 54.1 °F 30.1 in Calm   1 mph 95% 0.02 in 12 W/m2
08:58 55.4 °F 54 °F 30.1 in NW 0.9 mph 1 mph 95% 0.02 in 16 W/m2
09:03 55.4 °F 54 °F 30.1 in ENE 0.9 mph 2 mph 95% 0.02 in 30 W/m2
09:08 55.4 °F 54 °F 30.1 in Calm   1 mph 95% 0.02 in 26 W/m2
09:13 55.4 °F 54 °F 30.1 in NE 0.9 mph 1 mph 95% 0.02 in 33 W/m2
09:18 55.6 °F 54.1 °F 30.1 in NNW 2 mph 3 mph 95% 0.02 in 37 W/m2
09:23 55.6 °F 54.1 °F 30.1 in North 0.9 mph 1 mph 95% 0.02 in 44 W/m2
09:28 55.6 °F 54.1 °F 30.1 in Calm   4 mph 95% 0.01 in 46 W/m2
09:33 55.6 °F 54.1 °F 30.1 in Calm   2 mph 95% 0.02 in 51 W/m2
09:38 55.8 °F 54.3 °F 30.1 in Calm   4 mph 95% 0.02 in 70 W/m2
09:43 55.8 °F 54.3 °F 30.1 in Calm   3 mph 95% 0.02 in 77 W/m2
09:48 55.8 °F 54.3 °F 30.1 in NNW 2.9 mph 4 mph 95% 0.01 in 60 W/m2
09:53 55.9 °F 54.5 °F 30.1 in NW 4 mph 5 mph 95% 0.01 in 30 W/m2
09:58 55.9 °F 54.5 °F 30.1 in NNW 0.9 mph 3 mph 95% 0.01 in 25 W/m2
10:03 55.9 °F 54.5 °F 30.1 in Calm   5 mph 95% 0.01 in 35 W/m2
10:08 55.9 °F 54.3 °F 30.1 in NW 0.9 mph 3 mph 94% 0.01 in 32 W/m2
10:13 55.9 °F 54.3 °F 30.1 in Calm   1 mph 94% 0.01 in 37 W/m2
10:18 55.9 °F 54.3 °F 30.1 in Calm   3 mph 94% 0.01 in 40 W/m2
10:23 55.9 °F 54.3 °F 30.1 in NNE 0.9 mph 1 mph 94% 0.01 in 37 W/m2
10:28 55.9 °F 54.3 °F 30.1 in Calm     94% 0.01 in 37 W/m2
10:34 56.1 °F 54.5 °F 30.1 in NE 2 mph 2 mph 94% 0 in 63 W/m2
10:39 56.1 °F 54.5 °F 30.1 in Calm   2 mph 94% 0 in 35 W/m2
10:44 56.1 °F 54.5 °F 30.1 in North 2 mph 2 mph 94% 0 in 39 W/m2
10:49 56.1 °F 54.5 °F 30.1 in Calm   1 mph 94% 0 in 37 W/m2
10:54 56.1 °F 54.5 °F 30.1 in NE 2 mph 2 mph 94% 0 in 58 W/m2
10:59 56.1 °F 54.5 °F 30.1 in Calm   1 mph 94% 0 in 51 W/m2
11:04 56.1 °F 54.5 °F 30.1 in Calm     94% 0.01 in 53 W/m2
11:09 56.1 °F 54.5 °F 30.1 in WSW 0.9 mph 1 mph 94% 0.02 in 44 W/m2
11:14 56.1 °F 54.5 °F 30.1 in East 0.9 mph 4 mph 94% 0.02 in 67 W/m2
11:19 56.1 °F 54.5 °F 30.1 in Calm   2 mph 94% 0.02 in 100 W/m2
11:24 56.1 °F 54.5 °F 30.1 in WNW 0.9 mph 2 mph 94% 0.02 in 109 W/m2
11:29 56.3 °F 54.7 °F 30.1 in SE 2 mph 2 mph 94% 0.02 in 95 W/m2
11:34 56.3 °F 54.7 °F 30.1 in North 0.9 mph 3 mph 94% 0.02 in 62 W/m2
11:39 56.5 °F 54.9 °F 30.1 in West 0.9 mph 6 mph 94% 0.02 in 72 W/m2
11:44 56.5 °F 54.9 °F 30.1 in East 2 mph 3 mph 94% 0.03 in 105 W/m2
11:49 56.5 °F 54.9 °F 30.1 in NW 4 mph 7 mph 94% 0.04 in 109 W/m2
11:54 56.5 °F 54.9 °F 30.1 in West 0.9 mph 2 mph 94% 0.05 in 105 W/m2
11:59 56.5 °F 54.9 °F 30.1 in NW 4 mph 7 mph 94% 0.06 in 81 W/m2
12:04 56.5 °F 54.9 °F 30.1 in ESE 0.9 mph 4 mph 94% 0.05 in 146 W/m2
12:09 56.7 °F 55 °F 30.1 in WNW 2 mph 6 mph 94% 0.04 in 148 W/m2
12:14 56.7 °F 55 °F 30.1 in Calm   2 mph 94% 0.05 in 162 W/m2
12:19 56.7 °F 55 °F 30.1 in NNW 0.9 mph 3 mph 94% 0.05 in 162 W/m2
12:24 56.8 °F 55.2 °F 30.1 in NNW 4 mph 5 mph 94% 0.05 in 199 W/m2
12:29 57 °F 55.6 °F 30.1 in North 0.9 mph 2 mph 95% 0.05 in 162 W/m2
12:34 57 °F 55.2 °F 30.1 in West 0.9 mph 2 mph 94% 0.05 in 130 W/m2
12:39 57 °F 55.2 °F 30.1 in North 0.9 mph 2 mph 94% 0.06 in 105 W/m2
12:44 57 °F 55.2 °F 30.1 in NW 4 mph 6 mph 94% 0.05 in 125 W/m2
12:49 57 °F 55.2 °F 30.1 in NNW 2 mph 3 mph 94% 0.04 in 142 W/m2
12:54 57 °F 55.2 °F 30.1 in WSW 0.9 mph 5 mph 94% 0.02 in 118 W/m2
12:59 57 °F 55.2 °F 30.1 in NW 2 mph 4 mph 94% 0.02 in 86 W/m2
13:04 57 °F 55.2 °F 30.1 in WSW 4 mph 5 mph 94% 0.03 in 91 W/m2
13:09 57 °F 55.2 °F 30.1 in NNE 0.9 mph 3 mph 94% 0.04 in 83 W/m2
13:14 57 °F 55.2 °F 30.1 in West 2.9 mph 8 mph 94% 0.04 in 84 W/m2
13:19 57 °F 55.2 °F 30.1 in WNW 2 mph 3 mph 94% 0.04 in 62 W/m2
13:24 57 °F 55.2 °F 30.1 in Calm   8 mph 94% 0.06 in 54 W/m2
13:29 57 °F 55.2 °F 30.1 in West 0.9 mph 3 mph 94% 0.08 in 47 W/m2
13:34 57 °F 55.2 °F 30.1 in NNW 2.9 mph 4 mph 94% 0.09 in 81 W/m2
13:39 57 °F 55.2 °F 30.1 in WNW 0.9 mph 3 mph 94% 0.11 in 113 W/m2
13:44 57 °F 55.2 °F 30.1 in Calm   4 mph 94% 0.12 in 176 W/m2
13:49 57.4 °F 55.6 °F 30.1 in NW 2 mph 4 mph 94% 0.13 in 230 W/m2
13:54 57.7 °F 56.3 °F 30.1 in WNW 0.9 mph 2 mph 95% 0.13 in 301 W/m2
13:59 57.9 °F 56.1 °F 30.1 in West 2.9 mph 4 mph 94% 0.13 in 214 W/m2
14:04 57.9 °F 56.1 °F 30.1 in SW 2.9 mph 5 mph 94% 0.12 in 153 W/m2
14:09 57.9 °F 56.1 °F 30.1 in NW 2.9 mph 11 mph 94% 0.11 in 114 W/m2
14:14 57.9 °F 55.9 °F 30.1 in WNW 2 mph 4 mph 93% 0.1 in 127 W/m2
14:19 58.1 °F 56.1 °F 30.1 in West 6 mph 11 mph 93% 0.09 in 88 W/m2
14:24 58.1 °F 56.1 °F 30.1 in WNW 6.9 mph 8 mph 93% 0.07 in 86 W/m2
14:29 57.9 °F 55.9 °F 30.1 in WNW 2 mph 7 mph 93% 0.06 in 88 W/m2
14:34 57.9 °F 55.9 °F 30.1 in WNW 2.9 mph 8 mph 93% 0.04 in 91 W/m2
14:39 57.9 °F 55.9 °F 30.1 in NW 2.9 mph 4 mph 93% 0.02 in 123 W/m2
14:44 58.1 °F 56.1 °F 30.1 in WNW 2 mph 5 mph 93% 0.01 in 192 W/m2
14:49 58.3 °F 56.5 °F 30.1 in SW 4.9 mph 5 mph 94% 0 in 202 W/m2
14:54 58.3 °F 56.3 °F 30.1 in NW 0.9 mph 3 mph 93% 0 in 200 W/m2
14:59 58.5 °F 56.5 °F 30.1 in Calm   4 mph 93% 0 in 132 W/m2
15:04 58.6 °F 56.7 °F 30.1 in West 2.9 mph 3 mph 93% 0 in 118 W/m2
15:09 58.6 °F 56.7 °F 30.1 in WNW 2.9 mph 4 mph 93% 0 in 137 W/m2
15:14 58.6 °F 56.7 °F 30.1 in Calm   1 mph 93% 0 in 51 W/m2
15:19 58.6 °F 56.7 °F 30.1 in East 0.9 mph 2 mph 93% 0 in 47 W/m2
15:24 58.5 °F 56.5 °F 30.1 in NW 2 mph 4 mph 93% 0 in 40 W/m2
15:29 58.5 °F 56.5 °F 30.1 in NNW 2.9 mph 3 mph 93% 0 in 62 W/m2
15:34 58.5 °F 56.5 °F 30 in SW 0.9 mph 2 mph 93% 0 in 60 W/m2
15:40 58.5 °F 56.5 °F 30 in WSW 0.9 mph 6 mph 93% 0 in 84 W/m2
15:45 58.5 °F 56.5 °F 30.1 in WNW 2.9 mph 3 mph 93% 0 in 88 W/m2
15:50 58.3 °F 56.3 °F 30.1 in WNW 2.9 mph 6 mph 93% 0.01 in 46 W/m2
15:55 58.5 °F 56.5 °F 30.1 in WNW 2 mph 4 mph 93% 0.01 in 32 W/m2
16:00 58.3 °F 56.3 °F 30 in NW 2 mph 6 mph 93% 0.01 in 47 W/m2
16:05 58.5 °F 56.5 °F 30 in SW 0.9 mph 3 mph 93% 0.01 in 54 W/m2
16:10 58.5 °F 56.7 °F 30 in West 2 mph 5 mph 94% 0.01 in 70 W/m2
16:15 58.5 °F 56.7 °F 30 in NW 0.9 mph 4 mph 94% 0.02 in 47 W/m2
16:20 58.5 °F 56.7 °F 30 in WNW 2 mph 4 mph 94% 0.02 in 46 W/m2
16:25 58.3 °F 56.5 °F 30 in NW 2 mph 4 mph 94% 0.02 in 40 W/m2
16:30 58.3 °F 56.5 °F 30 in NW 2 mph 6 mph 94% 0.02 in 44 W/m2
16:35 58.3 °F 56.5 °F 30 in WNW 2 mph 6 mph 94% 0.02 in 46 W/m2
16:40 58.3 °F 56.5 °F 30 in WSW 4 mph 6 mph 94% 0.02 in 88 W/m2
16:45 58.3 °F 56.5 °F 30 in NW 2.9 mph 6 mph 94% 0.02 in 86 W/m2
16:50 58.3 °F 56.5 °F 30 in WNW 0.9 mph 3 mph 94% 0.01 in 67 W/m2
16:55 58.5 °F 56.7 °F 30 in WNW 0.9 mph 3 mph 94% 0.01 in 58 W/m2
17:00 58.3 °F 56.5 °F 30.1 in NW 2 mph 3 mph 94% 0.02 in 32 W/m2
17:05 58.3 °F 56.5 °F 30.1 in WNW 2.9 mph 3 mph 94% 0.04 in 21 W/m2
17:10 58.1 °F 56.3 °F 30.1 in West 4 mph 4 mph 94% 0.06 in 30 W/m2
17:15 57.7 °F 55.9 °F 30.1 in WNW 8.9 mph 9 mph 94% 0.06 in 51 W/m2
17:20 57.6 °F 55.8 °F 30.1 in West 2.9 mph 6 mph 94% 0.07 in 58 W/m2
17:25 57.4 °F 55.6 °F 30 in WNW 9 mph 9 mph 94% 0.07 in 58 W/m2
17:30 57.2 °F 55.4 °F 30.1 in WNW 2 mph 4 mph 94% 0.07 in 46 W/m2
17:35 57.2 °F 55.8 °F 30.1 in West 0.9 mph 4 mph 95% 0.07 in 44 W/m2
17:40 57 °F 55.6 °F 30 in West 2 mph 2 mph 95% 0.07 in 51 W/m2
17:45 57 °F 55.6 °F 30.1 in West 2 mph 4 mph 95% 0.07 in 47 W/m2
17:50 57 °F 55.6 °F 30.1 in West 2.9 mph 4 mph 95% 0.07 in 56 W/m2
17:55 57 °F 55.6 °F 30.1 in WNW 0.9 mph 2 mph 95% 0.07 in 28 W/m2
18:00 57 °F 55.6 °F 30.1 in WSW 0.9 mph 2 mph 95% 0.06 in 32 W/m2
18:05 57 °F 55.6 °F 30.1 in WNW 2 mph 3 mph 95% 0.04 in 21 W/m2
18:10 57 °F 55.6 °F 30 in Calm   2 mph 95% 0.02 in 26 W/m2
18:15 57 °F 55.6 °F 30.1 in WNW 2 mph 4 mph 95% 0.01 in 28 W/m2
18:20 57 °F 55.6 °F 30.1 in West 0.9 mph 2 mph 95% 0.01 in 23 W/m2
18:25 57 °F 55.6 °F 30.1 in West 4 mph 4 mph 95% 0.01 in 21 W/m2
18:30 57 °F 55.6 °F 30.1 in Calm   2 mph 95% 0.01 in 14 W/m2
18:35 56.8 °F 55.4 °F 30.1 in West 2 mph 3 mph 95% 0.01 in 12 W/m2
18:40 56.8 °F 55.4 °F 30.1 in West 2 mph 4 mph 95% 0.01 in 9 W/m2
18:45 56.8 °F 55.4 °F 30.1 in Calm   3 mph 95% 0.01 in 5 W/m2
18:50 56.8 °F 55.4 °F 30.1 in WSW 0.9 mph 4 mph 95% 0.01 in 0 W/m2
18:55 56.8 °F 55.4 °F 30.1 in WNW 2 mph 3 mph 95% 0.01 in 0 W/m2
19:00 56.8 °F 55.4 °F 30.1 in Calm   4 mph 95% 0.01 in 0 W/m2
19:05 56.8 °F 55.4 °F 30.1 in West 0.9 mph 4 mph 95% 0.01 in 0 W/m2
19:10 56.7 °F 55.2 °F 30.1 in WNW 0.9 mph 3 mph 95% 0.01 in 0 W/m2
19:15 56.7 °F 55 °F 30.1 in Calm   4 mph 94% 0.01 in 0 W/m2
19:20 56.7 °F 55 °F 30.1 in WNW 2 mph 3 mph 94% 0 in 0 W/m2
19:25 56.7 °F 55 °F 30.1 in WNW 2.9 mph 4 mph 94% 0 in 0 W/m2
19:30 56.7 °F 55 °F 30.1 in Calm   7 mph 94% 0 in 0 W/m2
19:35 56.5 °F 54.9 °F 30.1 in West 4 mph 5 mph 94% 0 in 0 W/m2
19:40 56.5 °F 54.9 °F 30.1 in West 2 mph 4 mph 94% 0 in 0 W/m2
19:45 56.3 °F 54.7 °F 30.1 in WSW 0.9 mph 4 mph 94% 0 in 0 W/m2
19:50 56.1 °F 54.5 °F 30.1 in West 2.9 mph 8 mph 94% 0 in 0 W/m2
Juneau County Weather
Compliments of Weather Underground - 2 mb